Location: *
(51.1248°S, 108.4023°W)
Time: 09:58:21
(UTC+00:00)

PAYLOAD B - Visible Passes

Search period start: 20 October 2021 00:00
Search period end: 30 October 2021 00:00
Orbit: 849 x 871 km, 99.1° (Epoch: 19 October)

Date Brightness Start Highest point End Pass type
(mag) Time Alt. Az. Time Alt. Az. Time Alt. Az.
20 Oct 6.5 03:35:58 10° S 03:40:38 28° WSW 03:45:16 10° WNW visible
21 Oct 6.2 03:26:48 10° S 03:31:41 32° WSW 03:36:31 10° WNW visible
22 Oct 6.0 03:17:40 10° S 03:22:44 36° WSW 03:27:45 10° NW visible
23 Oct 5.7 03:08:33 10° S 03:13:46 42° WSW 03:18:56 10° NW visible
23 Oct 7.8 04:53:03 10° SW 04:53:14 10° SW 04:53:26 10° SW visible
24 Oct 5.4 02:59:26 10° S 03:04:47 48° WSW 03:10:05 10° NW visible
24 Oct 7.6 04:42:38 10° SSW 04:44:23 11° SW 04:46:08 10° WSW visible
24 Oct 7.2 11:12:38 10° E 11:16:43 21° SE 11:20:50 10° S visible
25 Oct 5.1 02:50:20 10° S 02:55:48 56° WSW 03:01:12 10° NW visible
25 Oct 7.4 04:33:04 10° SSW 04:35:32 13° SW 04:37:59 10° WSW visible
25 Oct 7.3 11:04:04 10° E 11:07:50 19° SE 11:11:35 10° S visible
26 Oct 4.8 02:41:15 10° S 02:46:48 64° WSW 02:52:16 10° NNW visible
26 Oct 7.3 04:23:40 10° SSW 04:26:39 15° SW 04:29:38 10° W visible
26 Oct 7.4 10:55:34 10° E 10:58:56 17° SE 11:02:19 10° SSE visible
27 Oct 7.2 04:14:20 10° SSW 04:17:46 17° SW 04:21:11 10° W visible
27 Oct 7.5 10:47:08 10° E 10:50:03 15° SE 10:52:58 10° SSE visible
28 Oct 7.1 04:05:04 10° S 04:08:52 19° SW 04:12:39 10° W visible
28 Oct 7.6 10:38:50 10° ESE 10:41:11 13° SE 10:43:32 10° SSE visible
29 Oct 7.0 03:55:50 10° S 03:59:57 22° SW 04:04:04 10° WNW visible
29 Oct 7.8 10:30:44 10° ESE 10:32:20 11° SE 10:33:55 10° SSE visible
